Location: Newark
(26.8229°N, 81.7649°W)
Time: 22:01:18
(UTC+00:00)

PCSat - Visible Passes

Search period start: 02 April 2020 00:00
Search period end: 12 April 2020 00:00
Orbit: 785 x 794 km, 67.1° (Epoch: 02 April)

Date Brightness Start Highest point End Pass type
(mag) Time Alt. Az. Time Alt. Az. Time Alt. Az.
02 Apr 11.1 01:25:30 10° N 01:28:23 21° NE 01:28:23 21° NE visible
02 Apr 12.3 03:08:14 10° NW 03:09:08 14° NW 03:09:08 14° NW visible
03 Apr 11.2 00:55:20 10° NNE 00:58:34 16° ENE 00:58:44 16° ENE visible
03 Apr 11.4 02:36:57 10° NW 02:39:29 27° NW 02:39:29 27° NW visible
04 Apr 11.5 00:26:05 10° NE 00:27:22 11° NE 00:28:38 10° ENE visible
04 Apr 10.2 02:05:50 10° NNW 02:09:54 51° NW 02:09:54 51° NW visible
05 Apr 9.4 01:34:52 10° NNW 01:40:17 73° ENE 01:40:24 73° E visible
06 Apr 9.8 01:04:02 10° N 01:09:17 49° ENE 01:11:00 36° ESE visible
06 Apr 12.1 02:49:18 10° WNW 02:51:46 14° W 02:51:46 14° W visible
07 Apr 10.3 00:33:20 10° N 00:38:14 34° ENE 00:41:43 17° ESE visible
07 Apr 11.5 02:17:15 10° WNW 02:21:19 22° WSW 02:22:29 20° SW visible
08 Apr 11.0 01:45:41 10° NW 01:50:27 32° WSW 01:53:18 20° SSW visible
09 Apr 10.4 01:14:22 10° NW 01:19:34 48° WSW 01:24:15 12° S visible
10 Apr 9.8 00:43:14 10° NNW 00:48:38 73° WSW 00:54:00 10° SSE visible
11 Apr 9.6 00:12:15 10° NNW 00:17:40 77° ENE 00:23:03 10° SSE visible
